Lincoln County, Oregon, United States
Lat: 44.65N, Lon: 123.85W
Wx Zone: ORZ004
Local Info
Past Weather Observations for Yesterday

NOTE: This archive is for the closest National Weather Service station to Lincoln County. Information may differ from the station used for current weather conditions.

Click here for Long-term Archive

Time Weather Temperature Dewpoint Humidity Pressure Winds Precip Visibility
23:55
Partly Cloudy
52°F / 11°C 52°F / 11°C 100% 30.04 in
(1017 mb)
NNW 4.6 mph
(NNW 7 kph)
- 7SM
23:35
Clear
54°F / 12°C 52°F / 11°C 94% 30.04 in
(1017 mb)
NNW 4.6 mph
(NNW 7 kph)
- 10SM
23:15
Clear
52°F / 11°C 52°F / 11°C 100% 30.04 in
(1017 mb)
Calm - 10SM
22:55
Partly Cloudy
54°F / 12°C 54°F / 12°C 100% 30.04 in
(1017 mb)
NNW 4.6 mph
(NNW 7 kph)
- 10SM
22:35
Partly Cloudy
54°F / 12°C 52°F / 11°C 94% 30.04 in
(1017 mb)
Calm - 7SM
22:15
Partly Cloudy
54°F / 12°C 54°F / 12°C 100% 30.04 in
(1017 mb)
Calm - 7SM
21:55
Partly Cloudy
54°F / 12°C 54°F / 12°C 100% 30.04 in
(1017 mb)
Calm - 10SM
21:35
Mostly Cloudy
54°F / 12°C 54°F / 12°C 100% 30.04 in
(1017 mb)
NNW 4.6 mph
(NNW 7 kph)
- 7SM
21:15
Overcast
Fog And Mist
54°F / 12°C 54°F / 12°C 100% 30.04 in
(1017 mb)
N 4.6 mph
(N 7 kph)
- 2SM
20:55
Mostly Cloudy
55°F / 13°C 54°F / 12°C 94% 30.04 in
(1017 mb)
N 4.6 mph
(N 7 kph)
- 7SM
20:35
Overcast
Fog And Mist
54°F / 12°C 54°F / 12°C 100% 30.04 in
(1017 mb)
NNW 5.8 mph
(NNW 9 kph)
- 3SM
20:15
Overcast
Fog And Mist
54°F / 12°C 54°F / 12°C 100% 30.04 in
(1017 mb)
N 8.1 mph
(N 13 kph)
- 2 1/2SM
19:55
Mostly Cloudy
55°F / 13°C 54°F / 12°C 94% 30.04 in
(1017 mb)
NNW 5.8 mph
(NNW 9 kph)
- 10SM
19:35
Mostly Cloudy
55°F / 13°C 54°F / 12°C 94% 30.04 in
(1017 mb)
N 9.2 mph
(N 15 kph)
- 10SM
19:15
Partly Cloudy
55°F / 13°C 54°F / 12°C 94% 30.01 in
(1016 mb)
N 10.4 mph
(N 17 kph)
- 10SM
18:55
Partly Cloudy
57°F / 14°C 54°F / 12°C 88% 30.01 in
(1016 mb)
NNW 10.4 mph
(NNW 17 kph)
- 10SM
18:35
Clear
57°F / 14°C 55°F / 13°C 94% 30.01 in
(1016 mb)
N 13.8 mph
(N 22 kph)
- 10SM
18:15
Clear
59°F / 15°C 54°F / 12°C 82% 30.01 in
(1016 mb)
NNW 12.7 mph
(NNW 20 kph)
- 10SM
17:55
Clear
59°F / 15°C 55°F / 13°C 88% 30.01 in
(1016 mb)
NNW 15 mph
(NNW 24 kph)
- 10SM
17:35
Clear
59°F / 15°C 54°F / 12°C 82% 30.01 in
(1016 mb)
NNW 13.8 mph
(NNW 22 kph)
- 10SM
17:15
Clear
61°F / 16°C 55°F / 13°C 83% 30.01 in
(1016 mb)
NNW 13.8 mph
(NNW 22 kph)
- 10SM
16:55
Clear
61°F / 16°C 55°F / 13°C 83% 30.01 in
(1016 mb)
NNW 10.4 mph
(NNW 17 kph)
- 10SM
16:35
Clear
61°F / 16°C 54°F / 12°C 77% 30.01 in
(1016 mb)
NNW 10.4 mph
(NNW 17 kph)
- 10SM
16:15
Clear
61°F / 16°C 55°F / 13°C 83% 30.01 in
(1016 mb)
N 8.1 mph
(N 13 kph)
- 10SM
15:35
Fair
61°F / 16°C 54°F / 12°C 77% 30.01 in
(1016 mb)
NNW 13.8 mph
(NNW 22 kph)
- 10SM
15:15
Fair
N/A N/A N/A N/A N 13.8 mph
(N 22 kph)
-
14:55
Clear
63°F / 17°C 55°F / 13°C 77% 30.01 in
(1016 mb)
N 18.4 mph
(N 30 kph)
- 10SM
14:35
Clear
63°F / 17°C 55°F / 13°C 77% 30.01 in
(1016 mb)
NNW 19.6 mph
(NNW 32 kph)
- 10SM
14:15
Clear
63°F / 17°C 55°F / 13°C 77% 30.01 in
(1016 mb)
NNW 20.7 mph
(NNW 33 kph)
- 10SM
13:55
Clear
64°F / 18°C 55°F / 13°C 73% 30.01 in
(1016 mb)
N 21.9 mph
(N 35 kph)
- 10SM
13:35
Clear
64°F / 18°C 55°F / 13°C 73% 30.01 in
(1016 mb)
NNW 20.7 mph
(NNW 33 kph)
- 10SM
13:15
Clear
64°F / 18°C 55°F / 13°C 73% 30.01 in
(1016 mb)
N 17.3 mph
(N 28 kph)
- 10SM
12:55
Clear
64°F / 18°C 55°F / 13°C 73% 30.01 in
(1016 mb)
NNW 13.8 mph
(NNW 22 kph)
- 10SM
12:35
Clear
64°F / 18°C 57°F / 14°C 78% 30.01 in
(1016 mb)
N 9.2 mph
(N 15 kph)
- 10SM
12:15
Clear
64°F / 18°C 55°F / 13°C 73% 30.01 in
(1016 mb)
N 8.1 mph
(N 13 kph)
- 10SM
11:55
Clear
64°F / 18°C 57°F / 14°C 78% 30.01 in
(1016 mb)
NW 10.4 mph
(NW 17 kph)
- 10SM
11:35
Clear
64°F / 18°C 57°F / 14°C 78% 30.01 in
(1016 mb)
N 6.9 mph
(N 11 kph)
- 10SM
11:15
Clear
Fog And Mist
61°F / 16°C 59°F / 15°C 94% 30.01 in
(1016 mb)
NNW 5.8 mph
(NNW 9 kph)
- 5SM
10:55
Partly Cloudy
59°F / 15°C 57°F / 14°C 94% 30.01 in
(1016 mb)
Calm - 7SM
10:35
Partly Cloudy
Fog And Mist
59°F / 15°C 57°F / 14°C 94% 30.01 in
(1016 mb)
Calm - 5SM
10:15
Clear
Fog And Mist
57°F / 14°C 57°F / 14°C 100% 30.01 in
(1016 mb)
Calm - 5SM
09:55
Clear
Light Rain
57°F / 14°C 55°F / 13°C 94% 30.01 in
(1016 mb)
Calm - 5SM
09:35
Partly Cloudy
Light Rain
55°F / 13°C 55°F / 13°C 100% 30.01 in
(1016 mb)
Calm - 4SM
09:15
Mostly Cloudy
Light Rain
55°F / 13°C 55°F / 13°C 100% 30.01 in
(1016 mb)
Calm - 7SM
08:55
Clear
55°F / 13°C 55°F / 13°C 100% 30.01 in
(1016 mb)
Calm - 10SM
08:35
Partly Cloudy
Light Rain
55°F / 13°C 55°F / 13°C 100% 30.01 in
(1016 mb)
Calm - 10SM
08:15
Partly Cloudy
55°F / 13°C 55°F / 13°C 100% 30.01 in
(1016 mb)
Calm - 10SM
07:55
Clear
55°F / 13°C 55°F / 13°C 100% 30.01 in
(1016 mb)
Calm - 10SM
07:35
Partly Cloudy
Fog And Mist
54°F / 12°C 54°F / 12°C 100% 30.01 in
(1016 mb)
Calm - 5SM
07:15
Overcast
Fog And Mist
54°F / 12°C 54°F / 12°C 100% 30.01 in
(1016 mb)
SSE 3.5 mph
(SSE 6 kph)
- 5SM
06:55
Overcast
Fog And Mist
54°F / 12°C 54°F / 12°C 100% 30.01 in
(1016 mb)
Calm - 3SM
06:35
Overcast
Fog And Mist
54°F / 12°C 54°F / 12°C 100% 29.98 in
(1015 mb)
Calm - 1SM
06:15
Overcast
Fog
54°F / 12°C 54°F / 12°C 100% 29.98 in
(1015 mb)
Calm - M1/4SM
05:55
Overcast
Fog
54°F / 12°C 54°F / 12°C 100% 29.98 in
(1015 mb)
Calm - M1/4SM
05:35
Overcast
Fog
54°F / 12°C 54°F / 12°C 100% 29.98 in
(1015 mb)
Calm - M1/4SM
05:15
Overcast
Fog
54°F / 12°C 54°F / 12°C 100% 29.98 in
(1015 mb)
Calm - M1/4SM
04:55
Overcast
Fog
54°F / 12°C 54°F / 12°C 100% 29.98 in
(1015 mb)
Calm - 1/4SM
04:35
Overcast
Fog
54°F / 12°C 54°F / 12°C 100% 29.98 in
(1015 mb)
ENE 3.5 mph
(ENE 6 kph)
- 1/2SM
04:15
Overcast
Fog And Mist
54°F / 12°C 54°F / 12°C 100% 29.98 in
(1015 mb)
Calm - 3/4SM
03:55
Overcast
Fog And Mist
54°F / 12°C 52°F / 11°C 94% 29.98 in
(1015 mb)
NE 3.5 mph
(NE 6 kph)
- 1 1/2SM
03:35
Overcast
Fog And Mist
54°F / 12°C 54°F / 12°C 100% 29.98 in
(1015 mb)
Calm - 3SM
03:15
Overcast
Fog And Mist
54°F / 12°C 54°F / 12°C 100% 29.98 in
(1015 mb)
Calm - 1 1/2SM
02:55
Overcast
Fog And Mist
54°F / 12°C 54°F / 12°C 100% 29.98 in
(1015 mb)
Calm - 1 1/4SM
02:35
Overcast
Fog And Mist
54°F / 12°C 54°F / 12°C 100% 29.98 in
(1015 mb)
SSW 3.5 mph
(SSW 6 kph)
- 3SM
02:15
Overcast
Fog And Mist
54°F / 12°C 54°F / 12°C 100% 29.98 in
(1015 mb)
SW 5.8 mph
(SW 9 kph)
- 1SM
01:55
Overcast
Fog And Mist
54°F / 12°C 54°F / 12°C 100% 29.98 in
(1015 mb)
SW 5.8 mph
(SW 9 kph)
- 1SM
01:35
Overcast
Fog And Mist
55°F / 13°C 54°F / 12°C 94% 29.98 in
(1015 mb)
S 9.2 mph
(S 15 kph)
- 3SM
01:15
Overcast
Fog And Mist
55°F / 13°C 54°F / 12°C 94% 29.98 in
(1015 mb)
S 9.2 mph
(S 15 kph)
- 4SM
00:55
Overcast
Fog And Mist
55°F / 13°C 54°F / 12°C 94% 29.98 in
(1015 mb)
S 8.1 mph
(S 13 kph)
- 4SM
00:35
Overcast
Fog And Mist
54°F / 12°C 54°F / 12°C 100% 29.98 in
(1015 mb)
SW 6.9 mph
(SW 11 kph)
- 4SM
00:15
Mostly Cloudy
Fog And Mist
54°F / 12°C 54°F / 12°C 100% 29.98 in
(1015 mb)
S 5.8 mph
(S 9 kph)
- 4SM
Time Weather Temperature Dewpoint Humidity Pressure Winds Precip Visibility


Weather for websites

WeatherForYou.com, LLC is not responsible for any damages or problems caused by this service. Current weather conditions are obtained from the closest station including government and personal stations which may have varying degrees of accuracy. Weather forecasts are derived from the NOAA NDFD. Like all things, this site belongs to Jesus Christ... He just trusts us to maintain it. If you have any questions or comments email webmaster@weatherforyou.com

Copyright © 2015, WeatherForYou.com LLC. All rights reserved.